Back to catalog

CZ-6A DEB

AlivePO
NORAD 60790·DEBRIS·🇨🇳 China

Launched Aug 6, 2024 from Taiyuan Satellite Launch Center

Loading…

Next Passes (next 24 hours)

TLE

FreshSource: Space-Track

Epoch: Sep 14, 2026, 05:06 UTC

1 60790U 24140FR  26257.21306468  .00000439  00000-0  11833-3 0  9990
2 60790  88.8369 245.9427 0076556   6.3696 353.8461 14.44429517110124

Track CZ-6A DEB in real time with AllMySat

Download on the App Store